#Datum;Uhrzeit;WR;Pac;DaySum;Status;WR;Pac;DaySum;Status;Pdc1;Udc;Temp;WR;Pac;DaySum;Status;Pdc1;Udc;Temp;WR;Pac;DaySum;Status;Pdc1;Udc;Temp;WR;Pac;DaySum;Status;Pdc1;Pdc2;Udc1;Udc2;Temp;WR;Pac;DaySum;Status;Pdc1;Pdc2;Udc1;Udc2;Temp;WR;Pac;DaySum;Status;Pdc1;Udc;Temp;WR;Pac;DaySum;Status;Pdc1;Udc;Temp;WR;Pac;DaySum;Status;Pdc1;Udc;Temp
14.07.18;23:55:00;1;197;6491;0;2;0;29483;0;0;0;0;3;0;19170;0;0;0;0;4;0;26934;0;0;0;0;5;0;67050;0;0;0;0;0;0;6;0;51510;0;0;0;0;0;0;7;0;34731;0;0;0;0;8;0;34658;0;0;0;0;9;0;19077;0;0;0;0
14.07.18;23:50:00;1;196;6475;0;2;0;29483;0;0;0;0;3;0;19170;0;0;0;0;4;0;26934;0;0;0;0;5;0;67050;0;0;0;0;0;0;6;0;51510;0;0;0;0;0;0;7;0;34731;0;0;0;0;8;0;34658;0;0;0;0;9;0;19077;0;0;0;0
14.07.18;23:45:00;1;244;6458;0;2;0;29483;0;0;0;0;3;0;19170;0;0;0;0;4;0;26934;0;0;0;0;5;0;67050;0;0;0;0;0;0;6;0;51510;0;0;0;0;0;0;7;0;34731;0;0;0;0;8;0;34658;0;0;0;0;9;0;19077;0;0;0;0
14.07.18;23:40:00;1;286;6438;0;2;0;29483;0;0;0;0;3;0;19170;0;0;0;0;4;0;26934;0;0;0;0;5;0;67050;0;0;0;0;0;0;6;0;51510;0;0;0;0;0;0;7;0;34731;0;0;0;0;8;0;34658;0;0;0;0;9;0;19077;0;0;0;0
14.07.18;23:35:00;1;311;6413;0;2;0;29483;0;0;0;0;3;0;19170;0;0;0;0;4;0;26934;0;0;0;0;5;0;67050;0;0;0;0;0;0;6;0;51510;0;0;0;0;0;0;7;0;34731;0;0;0;0;8;0;34658;0;0;0;0;9;0;19077;0;0;0;0
14.07.18;23:30:00;1;348;6387;0;2;0;29483;0;0;0;0;3;0;19170;0;0;0;0;4;0;26934;0;0;0;0;5;0;67050;0;0;0;0;0;0;6;0;51510;0;0;0;0;0;0;7;0;34731;0;0;0;0;8;0;34658;0;0;0;0;9;0;19077;0;0;0;0
14.07.18;23:25:00;1;356;6358;0;2;0;29483;0;0;0;0;3;0;19170;0;0;0;0;4;0;26934;0;0;0;0;5;0;67050;0;0;0;0;0;0;6;0;51510;0;0;0;0;0;0;7;0;34731;0;0;0;0;8;0;34658;0;0;0;0;9;0;19077;0;0;0;0
14.07.18;23:20:00;1;307;6328;0;2;0;29483;0;0;0;0;3;0;19170;0;0;0;0;4;0;26934;0;0;0;0;5;0;67050;0;0;0;0;0;0;6;0;51510;0;0;0;0;0;0;7;0;34731;0;0;0;0;8;0;34658;0;0;0;0;9;0;19077;0;0;0;0
14.07.18;23:15:00;1;282;6303;0;2;0;29483;0;0;0;0;3;0;19170;0;0;0;0;4;0;26934;0;0;0;0;5;0;67050;0;0;0;0;0;0;6;0;51510;0;0;0;0;0;0;7;0;34731;0;0;0;0;8;0;34658;0;0;0;0;9;0;19077;0;0;0;0
14.07.18;23:10:00;1;266;6278;0;2;0;29483;0;0;0;0;3;0;19170;0;0;0;0;4;0;26934;0;0;0;0;5;0;67050;0;0;0;0;0;0;6;0;51510;0;0;0;0;0;0;7;0;34731;0;0;0;0;8;0;34658;0;0;0;0;9;0;19077;0;0;0;0
14.07.18;23:05:00;1;263;6256;0;2;0;29483;0;0;0;0;3;0;19170;0;0;0;0;4;0;26934;0;0;0;0;5;0;67050;0;0;0;0;0;0;6;0;51510;0;0;0;0;0;0;7;0;34731;0;0;0;0;8;0;34658;0;0;0;0;9;0;19077;0;0;0;0
14.07.18;23:00:00;1;263;6234;0;2;0;29483;0;0;0;0;3;0;19170;0;0;0;0;4;0;26934;0;0;0;0;5;0;67050;0;0;0;0;0;0;6;0;51510;0;0;0;0;0;0;7;0;34731;0;0;0;0;8;0;34658;0;0;0;0;9;0;19077;0;0;0;0
14.07.18;22:55:00;1;207;6212;0;2;0;29483;0;0;0;0;3;0;19170;0;0;0;0;4;0;26934;0;0;0;0;5;0;67050;2;0;0;0;0;0;6;0;51510;2;0;0;0;0;0;7;0;34731;0;0;0;0;8;0;34658;0;0;0;0;9;0;19077;0;0;0;0
14.07.18;22:50:00;1;201;6195;0;2;0;29483;0;0;0;0;3;0;19170;0;0;0;0;4;0;26934;0;0;0;0;5;0;67050;2;0;0;0;0;0;6;0;51510;2;0;0;0;0;0;7;0;34731;0;0;0;0;8;0;34658;0;0;0;0;9;0;19077;0;0;0;0
14.07.18;22:45:00;1;238;6178;0;2;0;29483;0;0;0;0;3;0;19170;0;0;0;0;4;0;26934;0;0;0;0;5;0;67050;2;0;0;0;0;0;6;0;51510;2;0;0;0;0;0;7;0;34731;0;0;0;0;8;0;34658;0;0;0;0;9;0;19077;0;0;0;0
14.07.18;22:40:00;1;238;6158;0;2;0;29483;0;0;0;0;3;0;19170;0;0;0;0;4;0;26934;0;0;0;0;5;0;67050;2;0;0;0;0;0;6;0;51510;2;0;0;0;0;0;7;0;34731;0;0;0;0;8;0;34658;0;0;0;0;9;0;19077;0;0;0;0
14.07.18;22:35:00;1;239;6138;0;2;0;29483;0;0;0;0;3;0;19170;0;0;0;0;4;0;26934;0;0;0;0;5;0;67050;2;0;0;0;0;0;6;0;51510;2;0;0;0;0;0;7;0;34731;0;0;0;0;8;0;34658;0;0;0;0;9;0;19077;0;0;0;0
14.07.18;22:30:00;1;204;6118;0;2;0;29483;0;0;0;0;3;0;19170;0;0;0;0;4;0;26934;0;0;0;0;5;0;67050;2;0;0;0;0;0;6;0;51510;2;0;0;0;0;0;7;0;34731;0;0;0;0;8;0;34658;0;0;0;0;9;0;19077;0;0;0;0
14.07.18;22:25:00;1;196;6101;0;2;0;29483;0;0;0;0;3;0;19170;0;0;0;0;4;0;26934;0;0;0;0;5;0;67050;2;0;0;0;0;0;6;0;51510;2;0;0;0;0;0;7;0;34731;0;0;0;0;8;0;34658;0;0;0;0;9;0;19077;0;0;0;0
14.07.18;22:20:00;1;196;6085;0;2;0;29483;0;0;0;0;3;0;19170;0;0;0;0;4;0;26934;0;0;0;0;5;0;67050;2;0;0;0;0;0;6;0;51510;2;0;0;0;0;0;7;0;34731;0;0;0;0;8;0;34658;0;0;0;0;9;0;19077;0;0;0;0
14.07.18;22:15:00;1;195;6068;0;2;0;29483;0;0;0;0;3;0;19170;0;0;0;0;4;0;26934;0;0;0;0;5;0;67050;2;0;0;0;0;0;6;0;51510;2;0;0;0;0;0;7;0;34731;0;0;0;0;8;0;34658;0;0;0;0;9;0;19077;0;0;0;0
14.07.18;22:10:00;1;196;6052;0;2;0;29483;0;0;0;0;3;0;19170;0;0;0;0;4;0;26934;0;0;0;0;5;0;67050;2;0;0;0;0;0;6;0;51510;2;0;0;0;0;0;7;0;34731;0;0;0;0;8;0;34658;0;0;0;0;9;0;19077;0;0;0;0
14.07.18;22:05:00;1;202;6035;0;2;0;29483;0;0;0;0;3;0;19170;0;0;0;0;4;0;26934;0;0;0;0;5;0;67050;2;0;0;0;0;0;6;0;51510;2;0;0;0;0;0;7;0;34731;0;0;0;0;8;0;34658;0;0;0;0;9;0;19077;0;0;0;0
14.07.18;22:00:00;1;245;6018;0;2;0;29483;0;0;0;0;3;0;19170;0;0;0;0;4;0;26934;0;0;0;0;5;0;67050;2;0;0;0;0;0;6;0;51510;2;0;0;0;0;0;7;0;34731;0;0;0;0;8;0;34658;0;0;0;0;9;0;19077;0;0;0;0
14.07.18;21:55:00;1;288;5997;0;2;0;29483;0;0;0;0;3;0;19170;0;0;0;0;4;0;26934;0;0;0;0;5;0;67050;2;0;0;0;0;0;6;0;51510;2;0;0;0;0;0;7;0;34731;0;0;0;0;8;0;34658;0;0;0;0;9;0;19077;0;0;0;0
14.07.18;21:50:00;1;289;5973;0;2;0;29483;0;0;0;0;3;0;19170;0;0;0;0;4;0;26934;0;0;0;0;5;0;67050;2;0;0;0;0;0;6;0;51510;2;0;0;0;0;0;7;0;34731;0;0;0;0;8;0;34658;0;0;0;0;9;0;19077;0;0;0;0
14.07.18;21:45:00;1;249;5949;0;2;0;29483;0;0;0;0;3;0;19170;0;0;0;0;4;0;26934;0;0;0;0;5;0;67050;2;0;0;0;0;0;6;0;51510;2;0;0;0;0;0;7;0;34731;0;0;0;0;8;0;34658;0;0;0;0;9;0;19077;0;0;0;0
14.07.18;21:40:00;1;247;5928;0;2;0;29483;0;0;0;0;3;0;19170;0;0;0;0;4;0;26934;0;0;0;0;5;0;67050;2;0;0;0;0;0;6;0;51510;2;0;0;0;0;0;7;0;34731;0;0;0;0;8;0;34658;0;0;0;0;9;0;19077;0;0;0;0
14.07.18;21:35:00;1;226;5907;0;2;0;29483;0;0;0;0;3;0;19170;0;0;112;13;4;0;26934;0;0;0;0;5;0;67050;2;0;0;0;0;0;6;0;51510;2;0;0;0;0;0;7;0;34731;0;0;0;0;8;0;34658;0;0;0;0;9;0;19077;0;0;0;0
14.07.18;21:30:00;1;198;5888;0;2;0;29483;0;0;174;20;3;0;19170;6;0;298;32;4;0;26934;0;0;33;16;5;0;67050;2;0;0;0;0;0;6;0;51510;0;0;0;0;0;0;7;0;34731;0;0;0;0;8;0;34658;0;0;0;0;9;0;19077;0;0;0;0
14.07.18;21:25:00;1;195;5871;0;2;0;29483;6;0;296;30;3;0;19170;6;0;355;32;4;0;26934;2;0;94;34;5;0;67050;2;0;0;23;23;6;6;0;51510;2;0;0;0;0;0;7;0;34731;0;0;0;0;8;0;34658;0;0;0;0;9;0;19077;0;0;0;0
14.07.18;21:20:00;1;276;5854;0;2;0;29483;6;0;329;31;3;0;19170;6;0;415;33;4;0;26934;1;0;143;34;5;0;67050;23;0;0;342;341;41;6;0;51510;23;0;10;441;180;40;7;0;34731;0;0;237;25;8;0;34658;0;0;238;25;9;0;19077;6;0;302;29
14.07.18;21:15:00;1;302;5831;0;2;0;29483;6;0;351;31;3;0;19170;3;5;416;33;4;0;26934;1;0;181;34;5;0;67050;8;0;0;383;538;42;6;0;51510;23;2;6;237;507;41;7;0;34731;6;0;360;32;8;0;34658;6;0;363;32;9;0;19077;6;0;386;29
14.07.18;21:10:00;1;304;5806;0;2;0;29483;6;0;363;32;3;1;19170;6;4;439;33;4;0;26934;1;0;200;35;5;8;67050;4;0;3;381;594;42;6;0;51510;23;2;5;182;527;41;7;0;34731;6;0;394;33;8;0;34658;6;0;397;32;9;0;19077;6;0;429;30
14.07.18;21:05:00;1;300;5780;0;2;0;29483;6;0;373;32;3;1;19170;6;4;456;34;4;0;26934;1;0;200;35;5;7;67049;4;0;2;387;609;43;6;0;51510;23;3;5;207;534;42;7;0;34731;6;0;407;33;8;0;34658;6;0;410;33;9;0;19077;4;3;414;30
14.07.18;21:00:00;1;264;5755;0;2;0;29483;6;0;389;33;3;1;19170;6;7;474;34;4;0;26934;3;0;222;36;5;79;67048;4;1;19;360;573;44;6;19;51510;1;4;16;508;435;42;7;1;34731;6;4;426;33;8;0;34658;6;2;428;33;9;2;19076;6;4;461;30
14.07.18;20:55:00;1;264;5733;0;2;48;29483;4;85;352;34;3;7;19170;6;18;471;35;4;3;26934;3;3;199;36;5;116;67041;4;21;39;360;573;44;6;63;51508;4;26;38;421;268;43;7;0;34731;6;7;448;34;8;2;34658;6;7;449;33;9;1;19076;6;9;465;31
14.07.18;20:50:00;1;265;5711;0;2;90;29479;4;128;351;35;3;40;19169;6;72;448;35;4;23;26934;3;24;198;36;5;165;67031;4;49;60;360;573;44;6;87;51502;4;45;50;421;268;43;7;47;34731;4;77;365;34;8;39;34657;4;75;387;34;9;3;19076;6;9;501;31
14.07.18;20:45:00;1;263;5689;0;2;149;29472;4;189;356;35;3;83;19166;4;125;462;36;4;50;26932;3;52;197;36;5;227;67017;4;82;92;360;573;44;6;120;51494;4;55;54;421;268;43;7;84;34727;4;114;363;34;8;80;34654;4;115;379;34;9;6;19076;6;10;519;31
14.07.18;20:40:00;1;251;5667;0;2;199;29460;4;240;355;36;3;122;19159;4;162;458;36;4;88;26928;3;92;202;37;5;286;66998;4;112;116;360;573;44;6;151;51484;4;81;69;421;268;43;7;119;34721;4;149;366;34;8;114;34647;4;152;379;34;9;48;19075;6;72;461;32
14.07.18;20:35:00;1;236;5647;0;2;249;29443;4;293;361;36;3;150;19149;4;190;462;36;4;115;26920;5;120;206;37;5;324;66974;4;135;131;360;573;44;6;169;51471;4;82;68;421;268;43;7;146;34711;4;188;407;34;8;144;34638;4;182;394;34;9;74;19072;4;106;446;32
14.07.18;20:30:00;1;238;5627;0;2;259;29423;4;307;363;37;3;158;19137;4;200;454;37;4;139;26911;5;145;208;37;5;345;66947;4;144;149;360;573;44;6;183;51457;4;104;85;421;268;43;7;166;34699;4;204;400;34;8;165;34626;4;203;390;34;9;88;19066;4;115;457;32
14.07.18;20:25:00;1;239;5607;0;2;449;29401;4;500;365;37;3;279;19123;4;327;465;37;4;175;26899;5;182;211;37;5;396;66918;4;173;171;360;573;44;6;208;51442;4;113;93;421;268;43;7;203;34685;4;242;421;35;8;197;34613;4;235;399;34;9;99;19058;4;132;468;32
14.07.18;20:20:00;1;215;5587;0;2;516;29364;4;570;368;38;3;321;19100;4;369;465;38;4;187;26885;5;195;214;37;5;422;66885;4;183;186;360;573;44;6;222;51424;4;115;92;421;268;43;7;219;34668;4;260;434;35;8;217;34596;4;261;417;34;9;109;19050;4;143;484;33
14.07.18;20:15:00;1;196;5569;0;2;602;29321;4;660;373;38;3;373;19073;4;423;464;38;4;208;26869;5;216;214;38;5;446;66850;4;200;189;360;573;44;6;235;51405;4;120;97;421;268;43;7;248;34649;4;286;424;35;8;235;34578;4;281;441;34;9;122;19041;4;156;479;33
14.07.18;20:10:00;1;222;5553;0;2;677;29271;4;738;379;39;3;414;19042;4;468;460;38;4;213;26852;5;222;217;38;5;446;66812;4;197;189;360;573;44;6;238;51386;4;155;121;421;268;44;7;252;34629;4;300;434;35;8;244;34559;4;288;446;35;9;116;19031;4;158;478;33
14.07.18;20:05:00;1;245;5534;0;2;723;29215;4;784;373;39;3;439;19008;4;493;464;38;4;207;26834;5;216;214;38;5;438;66775;4;193;187;360;573;44;6;233;51366;4;134;106;421;268;44;7;258;34608;4;303;441;35;8;246;34538;4;301;438;35;9;119;19021;4;155;473;33
14.07.18;20:00:00;1;244;5514;0;2;623;29154;4;680;364;40;3;368;18971;4;418;452;39;4;191;26816;5;199;214;39;5;409;66739;4;181;178;360;573;44;6;219;51347;4;126;105;421;268;44;7;261;34586;4;304;426;35;8;240;34517;4;288;440;35;9;114;19011;4;147;484;33
14.07.18;19:55:00;1;245;5493;0;2;518;29100;4;573;365;40;3;308;18939;4;358;451;39;4;181;26800;5;189;210;39;5;398;66704;4;171;176;360;573;44;6;230;51328;4;121;120;421;325;44;7;254;34564;4;292;433;36;8;229;34497;4;273;433;35;9;108;19002;4;144;464;34
14.07.18;19:50:00;1;287;5472;0;2;849;29055;4;919;373;41;3;484;18912;4;539;436;39;4;206;26785;5;215;219;39;5;440;66671;4;198;186;369;576;44;6;299;51309;4;119;174;421;501;44;7;292;34543;4;338;441;36;8;268;34478;4;311;438;35;9;114;18993;4;154;476;34
14.07.18;19:45:00;1;254;5448;0;2;1065;28986;4;1144;377;42;3;607;18873;4;664;426;40;4;233;26768;5;243;220;40;5;473;66634;4;214;198;373;595;45;6;325;51283;4;133;208;421;512;44;7;368;34519;4;415;434;36;8;321;34456;4;368;430;36;9;138;18983;4;177;487;34
14.07.18;19:40:00;1;239;5427;0;2;1136;28897;4;1218;371;43;3;635;18823;4;693;424;40;4;264;26749;5;275;225;40;5;503;66594;4;232;214;370;583;45;6;345;51256;4;152;214;421;514;44;7;436;34488;4;476;403;36;8;422;34429;4;466;442;36;9;161;18972;4;199;498;34
14.07.18;19:35:00;1;203;5407;0;2;1315;28802;4;1403;370;43;3;732;18770;4;791;418;40;4;300;26727;5;313;233;40;5;547;66552;4;253;239;376;593;45;6;404;51227;4;151;183;508;506;44;7;538;34452;4;586;414;36;8;522;34395;4;569;427;36;9;180;18958;4;218;493;35
14.07.18;19:30:00;1;196;5389;0;2;1425;28693;4;1520;371;44;3;798;18709;4;863;424;41;4;315;26702;5;328;222;41;5;560;66506;4;265;238;379;583;45;6;422;51193;4;189;235;508;510;44;7;688;34408;4;743;428;37;8;664;34351;4;719;421;36;9;185;18943;4;226;503;35
14.07.18;19:25:00;1;195;5373;0;2;1468;28574;4;1563;371;44;3;804;18643;4;869;412;41;4;508;26675;5;529;200;41;5;581;66459;4;261;252;382;607;45;6;446;51158;4;206;254;531;511;44;7;763;34350;4;820;449;37;8;644;34297;4;695;377;36;9;187;18928;4;223;500;35
14.07.18;19:20:00;1;196;5356;0;2;1543;28452;4;1644;372;45;3;851;18576;4;915;419;41;4;825;26634;5;859;200;42;5;642;66410;4;295;277;389;618;45;6;493;51120;4;213;268;541;517;44;7;845;34287;4;909;439;37;8;683;34243;4;732;361;37;9;171;18912;4;207;383;36
14.07.18;19:15:00;1;196;5340;0;2;1762;28323;4;1871;373;45;3;1000;18504;4;1072;425;42;4;1136;26566;5;1183;213;42;5;735;66356;4;347;319;390;630;45;6;556;51079;4;281;329;539;522;44;7;1026;34216;4;1097;446;37;8;892;34185;4;952;393;37;9;210;18898;4;244;354;36
14.07.18;19:10:00;1;209;5324;0;2;1861;28176;4;1973;376;46;3;1065;18421;4;1140;422;42;4;1279;26471;5;1332;228;42;5;827;66295;4;395;361;387;620;46;6;624;51032;4;290;335;552;523;44;7;1133;34131;4;1198;453;37;8;1094;34111;4;1160;435;37;9;290;18880;4;326;354;37
14.07.18;19:05:00;1;291;5306;0;2;1917;28022;4;2033;375;46;3;1113;18333;4;1189;432;42;4;1365;26365;5;1422;223;43;5;974;66225;4;477;419;396;631;46;6;730;50979;4;369;414;546;522;44;7;1213;34037;4;1289;444;38;8;1177;34021;4;1251;435;37;9;371;18856;4;409;352;37
14.07.18;19:00:00;1;303;5282;0;2;2197;27862;4;2321;368;46;3;1283;18240;4;1365;432;42;4;1575;26251;5;1640;224;43;5;1326;66143;4;657;580;399;633;46;6;1008;50917;4;484;515;554;531;45;7;1467;33937;4;1551;448;38;8;1461;33924;4;1543;443;37;9;556;18826;4;604;390;38
14.07.18;18:55:00;1;312;5257;0;2;2524;27680;4;2658;372;46;3;1493;18134;4;1578;439;43;4;1856;26121;5;1933;224;43;5;1747;66029;4;901;765;396;635;46;6;1333;50831;4;658;688;560;533;45;7;1780;33814;4;1883;446;38;8;1789;33802;4;1889;449;38;9;818;18779;4;880;448;39
14.07.18;18:50:00;1;265;5230;0;2;2779;27471;4;2925;369;46;3;1654;18010;4;1748;447;42;4;2078;25967;5;2165;226;43;5;2092;65882;4;1089;919;398;634;46;6;1598;50719;4;799;821;563;538;45;7;2053;33667;4;2162;445;38;8;2078;33654;4;2184;448;38;9;1072;18712;4;1148;497;39
14.07.18;18:45:00;1;264;5207;0;2;1513;27240;4;1606;365;44;3;953;17872;4;1027;476;42;4;1269;25794;5;1322;222;42;5;1775;65705;4;913;778;390;628;46;6;1411;50584;4;730;743;556;530;45;7;1615;33496;4;1709;452;38;8;1672;33481;4;1766;458;38;9;915;18623;4;987;507;39
14.07.18;18:40:00;1;265;5185;0;2;1934;27109;4;2045;371;45;3;1139;17791;4;1223;481;42;4;1422;25686;5;1481;223;43;5;1874;65562;4;978;817;394;632;46;6;1371;50473;4;674;701;553;535;45;7;1453;33362;4;1542;441;38;8;1483;33344;4;1567;445;38;9;779;18548;4;845;507;39
14.07.18;18:35:00;1;265;5163;0;2;1205;26957;4;1289;373;45;3;768;17700;4;836;482;42;4;938;25573;5;977;222;43;5;1569;65412;4;790;684;396;626;47;6;1195;50359;4;569;604;547;530;45;7;1153;33239;4;1235;444;38;8;1178;33217;4;1255;442;38;9;636;18482;4;695;490;39
14.07.18;18:30:00;1;264;5141;0;2;1021;26855;4;1096;359;46;3;654;17635;4;716;465;43;4;791;25493;5;823;217;43;5;1372;65281;4;688;595;388;621;47;6;1046;50259;4;516;545;541;520;45;7;938;33141;4;1002;429;38;8;939;33117;4;999;430;38;9;492;18428;4;547;490;39
14.07.18;18:25:00;1;308;5118;0;2;2109;26769;4;2234;374;48;3;1330;17580;4;1412;432;44;4;1705;25427;5;1776;220;44;5;2151;65168;4;1128;949;390;632;47;6;1639;50172;4;814;831;555;530;45;7;1688;33064;4;1787;455;38;8;1735;33039;4;1835;437;38;9;890;18387;4;961;477;40
14.07.18;18:20:00;1;280;5094;0;2;2394;26599;4;2529;366;49;3;1391;17473;4;1472;412;44;4;1753;25290;5;1825;215;45;5;2236;64989;4;1167;989;391;629;47;6;1761;50037;4;912;922;553;521;45;7;2252;32927;4;2374;444;38;8;2308;32899;4;2427;442;38;9;1286;18315;4;1375;487;41
14.07.18;18:15:00;1;300;5070;0;2;3327;26392;4;3504;359;49;3;2035;17354;4;2144;431;44;4;2608;25140;5;2717;218;44;5;3240;64788;4;1732;1438;396;635;47;6;2480;49886;4;1266;1252;554;535;45;7;2792;32754;4;2930;434;38;8;2801;32720;4;2948;440;38;9;1522;18215;4;1619;490;41
14.07.18;18:10:00;1;281;5045;0;2;3414;26115;4;3593;355;49;3;2097;17185;4;2212;441;44;4;2683;24924;5;2794;217;44;5;3413;64519;4;1832;1520;398;635;47;6;2619;49679;4;1341;1348;558;539;45;7;2907;32523;4;3052;436;38;8;2932;32491;4;3080;442;38;9;1596;18090;4;1694;484;41
14.07.18;18:05:00;1;248;5021;0;2;3469;25831;4;3654;361;48;3;2172;17010;4;2289;444;44;4;2744;24699;5;2858;217;43;5;3561;64233;4;1913;1588;398;637;47;6;2729;49461;4;1401;1388;555;537;45;7;3003;32281;4;3151;440;38;8;3003;32245;4;3157;447;38;9;1643;17956;4;1744;487;40
14.07.18;18:00:00;1;268;5000;0;2;3601;25542;4;3786;360;47;3;2267;16829;4;2387;443;43;4;2883;24471;5;3004;221;43;5;3827;63935;4;2054;1713;398;633;46;6;2930;49232;4;1478;1498;557;539;45;7;3143;32029;4;3297;442;37;8;3149;31997;4;3307;448;37;9;1724;17821;4;1830;489;40
14.07.18;17:55:00;1;206;4978;0;2;3041;25243;4;3205;370;45;3;1802;16640;4;1907;471;42;4;2301;24232;5;2397;223;42;5;3185;63615;4;1695;1418;396;637;46;6;2496;48987;4;1271;1278;565;531;45;7;2961;31769;4;3110;427;37;8;2899;31733;4;3050;452;37;9;1508;17676;4;1605;498;39
14.07.18;17:50:00;1;234;4960;0;2;2864;24986;4;3022;373;44;3;1760;16487;4;1868;485;42;4;2386;24037;5;2486;223;41;5;3439;63341;4;1838;1539;397;638;46;6;2806;48774;4;1408;1454;592;551;45;7;2196;31519;4;2304;423;37;8;1737;31487;4;1826;356;29;9;1349;17547;4;1439;498;39
14.07.18;17:45:00;1;220;4942;0;2;2736;24739;4;2888;378;42;3;1708;16340;4;1815;492;41;4;2361;23839;5;2460;226;40;5;3702;63026;4;1994;1654;401;644;46;6;3061;48538;4;1592;1559;561;546;45;7;2820;31338;4;2961;424;37;8;2697;31320;4;2839;439;37;9;1518;17445;4;1614;491;38
14.07.18;17:40:00;1;306;4922;0;2;1970;24516;4;2082;375;41;3;1260;16200;4;1346;484;40;4;1651;23645;5;1719;226;40;5;2924;62718;4;1558;1293;397;639;46;6;2247;48301;4;1133;1149;558;537;45;7;2061;31100;4;2164;365;29;8;2374;31095;4;2496;445;37;9;945;17318;4;1010;397;30
14.07.18;17:35:00;1;240;4901;0;2;1481;24349;4;1575;377;41;3;992;16095;4;1069;488;40;4;1321;23506;5;1376;229;40;5;2555;62484;4;1347;1127;398;633;46;6;1971;48121;4;1004;1018;562;542;45;7;1603;30887;4;1695;446;37;8;1613;30890;4;1699;453;37;9;871;17222;4;942;501;38
14.07.18;17:30:00;1;233;4881;0;2;1248;24224;4;1332;374;41;3;797;16011;4;869;487;40;4;1058;23395;5;1102;224;40;5;2221;62278;4;1148;980;395;624;46;6;1702;47961;4;825;839;558;541;45;7;1369;30752;4;1464;448;37;8;1376;30754;4;1457;450;37;9;732;17149;4;798;497;38
14.07.18;17:25:00;1;198;4860;0;2;1193;24120;4;1275;381;41;3;764;15945;4;833;489;40;4;1012;23307;5;1054;224;40;5;2199;62092;4;1147;967;393;634;47;6;1679;47819;4;821;851;555;539;45;7;1325;30638;4;1401;450;37;8;1316;30640;4;1394;450;37;9;702;17088;4;765;497;38
14.07.18;17:20:00;1;198;4844;0;2;1189;24020;4;1271;376;41;3;762;15881;4;829;487;41;4;1007;23222;5;1049;228;40;5;2258;61910;4;1184;992;395;631;47;6;1731;47679;4;856;885;559;543;45;7;1313;30528;4;1388;445;37;8;1297;30530;4;1374;445;37;9;692;17029;4;756;500;38
14.07.18;17:15:00;1;197;4827;0;2;1170;23921;4;1253;377;42;3;750;15817;4;818;490;41;4;1003;23138;5;1044;223;41;5;2282;61721;4;1187;1006;397;634;47;6;1755;47534;4;855;899;560;545;45;7;1295;30419;4;1373;445;38;8;1293;30423;4;1369;446;37;9;691;16972;4;756;500;38
14.07.18;17:10:00;1;197;4811;0;2;1158;23824;4;1239;379;42;3;740;15755;4;808;482;41;4;990;23055;5;1031;225;41;5;2273;61531;4;1187;1005;398;633;47;6;1753;47388;4;858;887;561;546;45;7;1279;30310;4;1359;445;38;8;1278;30314;4;1353;441;38;9;686;16914;4;749;487;39
14.07.18;17:05:00;1;197;4794;0;2;1144;23727;4;1227;375;42;3;731;15693;4;798;482;41;4;987;22972;5;1029;222;41;5;2268;61342;4;1175;987;394;629;47;6;1745;47242;4;880;899;550;542;46;7;1260;30204;4;1335;442;38;8;1256;30207;4;1329;445;38;9;672;16857;4;734;492;39
14.07.18;17:00:00;1;238;4778;0;2;1401;23632;4;1495;376;43;3;898;15632;4;971;485;42;4;1193;22890;5;1243;223;41;5;2678;61152;4;1411;1187;395;636;47;6;2054;47095;4;1055;1074;556;538;46;7;1480;30099;4;1563;447;38;8;1468;30103;4;1552;445;38;9;792;16801;4;858;486;39
14.07.18;16:55:00;1;241;4758;0;2;1946;23516;4;2065;383;44;3;1251;15558;4;1336;489;42;4;1660;22792;5;1729;224;41;5;3454;60925;4;1844;1540;395;641;47;6;2629;46921;4;1352;1350;565;535;46;7;2094;29976;4;2213;453;38;8;2042;29982;4;2156;451;38;9;1108;16736;4;1191;499;40
14.07.18;16:50:00;1;267;4738;0;2;1959;23355;4;2074;381;43;3;1211;15455;4;1294;485;42;4;1571;22654;5;1636;226;41;5;3187;60630;4;1697;1417;395;637;47;6;2438;46696;4;1221;1221;566;541;46;7;2178;29804;4;2291;455;38;8;2082;29812;4;2193;451;38;9;1138;16644;4;1219;501;39
14.07.18;16:45:00;1;279;4715;0;2;1353;23182;4;1444;380;43;3;868;15349;4;941;483;42;4;1153;22519;5;1201;224;41;5;2584;60352;4;1345;1132;391;625;47;6;1989;46480;4;1007;1014;556;535;46;7;1503;29616;4;1585;445;38;8;1496;29636;4;1579;446;38;9;811;16547;4;877;501;39
14.07.18;16:40:00;1;263;4692;0;2;1536;23069;4;1636;377;44;3;986;15277;4;1062;484;42;4;1317;22423;5;1371;226;41;5;2980;60137;4;1584;1324;399;629;47;6;2271;46314;4;1150;1151;550;537;46;7;1668;29491;4;1759;444;39;8;1653;29511;4;1743;451;38;9;896;16480;4;966;495;40
14.07.18;16:35:00;1;263;4670;0;2;1899;22942;4;2017;375;45;3;1219;15195;4;1307;487;43;4;1642;22314;5;1711;225;42;5;3535;59886;4;1900;1572;398;633;47;6;2686;46123;4;1362;1338;558;544;46;7;2044;29355;4;2159;452;39;8;2031;29376;4;2145;446;38;9;1107;16406;4;1186;499;40
14.07.18;16:30:00;1;292;4648;0;2;2384;22785;4;2520;381;44;3;1396;15094;4;1489;490;43;4;1830;22178;5;1906;231;41;5;3786;59587;4;2036;1682;402;654;47;6;3044;45898;4;1587;1558;564;558;46;7;2847;29183;4;2991;456;38;8;2988;29205;4;3140;458;38;9;1443;16313;4;1537;498;40
14.07.18;16:25:00;1;313;4623;0;2;2127;22592;4;2255;387;45;3;1331;14979;4;1423;505;43;4;1778;22026;5;1852;230;41;5;3684;59223;4;1977;1644;406;646;47;6;2761;45619;4;1397;1388;569;543;45;7;2124;28960;4;2242;457;38;8;2099;28972;4;2215;450;38;9;1142;16199;4;1225;502;40
14.07.18;16:20:00;1;331;4597;0;2;2676;22417;4;2828;399;44;3;1782;14869;4;1890;513;42;4;2474;21879;5;2577;234;40;5;5191;58909;4;2832;2312;415;678;46;6;4294;45382;4;2217;2183;584;549;45;7;3011;28784;4;3171;465;38;8;2951;28798;4;3102;466;38;9;1704;16104;4;1809;503;40
14.07.18;16:15:00;1;358;4569;0;2;2299;22195;4;2431;390;42;3;1515;14722;4;1617;509;42;4;1955;21676;5;2036;234;40;5;3846;58454;4;2065;1712;414;670;46;6;2971;45036;4;1507;1495;581;558;45;7;2426;28540;4;2553;467;38;8;2461;28558;4;2587;464;38;9;1336;15968;4;1428;514;39
14.07.18;16:10:00;1;380;4539;0;2;1719;22003;4;1822;397;42;3;1108;14596;4;1192;514;42;4;1510;21513;5;1572;239;40;5;3149;58142;4;1674;1397;420;665;46;6;2430;44794;4;1237;1253;581;563;45;7;1839;28330;4;1946;466;38;8;1861;28347;4;1955;462;38;9;1017;15853;4;1096;516;39
14.07.18;16:05:00;1;382;4508;0;2;1732;21858;4;1835;404;41;3;1111;14502;4;1194;511;41;4;1506;21384;5;1568;240;40;5;3112;57882;4;1654;1368;417;684;46;6;2379;44595;4;1186;1210;590;569;45;7;1895;28175;4;2003;470;38;8;1893;28189;4;2000;470;38;9;1031;15766;4;1109;517;39
14.07.18;16:00:00;1;274;4475;0;2;1127;21714;4;1204;384;41;3;719;14409;4;785;479;41;4;971;21259;5;1012;235;40;5;1912;57624;4;988;836;407;667;46;6;1402;44397;4;778;705;578;447;46;7;1294;28017;4;1375;455;38;8;1300;28032;4;1383;453;38;9;715;15681;4;778;497;38
14.07.18;15:55:00;1;280;4453;0;2;436;21615;4;487;373;41;3;276;14346;4;326;476;41;4;346;21173;5;360;227;40;5;748;57475;4;354;323;382;616;46;6;403;44289;4;239;166;450;271;46;7;478;27905;4;530;452;39;8;494;27919;4;542;444;39;9;265;15619;4;308;489;38
14.07.18;15:50:00;1;265;4430;0;2;221;21577;4;264;358;41;3;134;14322;4;175;476;41;4;162;21144;5;169;212;40;5;446;57416;4;201;191;363;573;47;6;249;44257;4;133;115;421;302;46;7;208;27863;4;254;425;39;8;212;27877;4;252;430;39;9;110;15596;4;145;471;38
14.07.18;15:45:00;1;194;4408;0;2;188;21559;4;229;352;42;3;109;14311;4;151;470;42;4;142;21130;5;147;208;41;5;445;57379;4;199;192;364;576;47;6;309;44236;4;131;188;421;503;46;7;137;27842;0;173;333;33;8;167;27858;4;210;397;40;9;87;15587;4;120;458;39
14.07.18;15:40:00;1;195;4392;0;2;243;21543;4;287;356;43;3;147;14302;4;189;463;43;4;194;21118;5;202;213;42;5;582;57341;4;273;248;368;591;47;6;405;44210;4;169;238;421;517;46;7;224;27832;4;264;407;40;8;210;27844;4;256;437;40;9;116;15579;4;150;474;40
14.07.18;15:35:00;1;209;4376;0;2;266;21523;4;309;357;44;3;163;14290;4;204;461;44;4;209;21102;5;217;212;42;5;597;57292;4;273;258;377;594;47;6;411;44176;4;168;238;421;520;47;7;241;27813;4;284;425;41;8;238;27827;4;284;438;41;9;131;15570;4;166;468;41